Lewisville's Hourly Summary for Monday, April 17, 2017
Hour Temp
(f)
RH
(%)
Solar Rad.
(MJ/m2)
Rainfall
(in)
Wind
(mph)
4/17/2017 12:00 AM 70 83 0 0 0.27
4/17/2017 1:00 AM 69 87 0 0 0.37
4/17/2017 2:00 AM 69 83 0 0 1.27
4/17/2017 3:00 AM 72 80 0 0 4.46
4/17/2017 4:00 AM 71 82 0 0 4.47
4/17/2017 5:00 AM 71 83 0 0 4.62
4/17/2017 6:00 AM 70 84 0 0 6.66
4/17/2017 7:00 AM 70 84 0 0 7.02
4/17/2017 8:00 AM 69 85 0.06 0 5.34
4/17/2017 9:00 AM 70 84 0.25 0 5.97
4/17/2017 10:00 AM 70 84 0.42 0 5.91
4/17/2017 11:00 AM 70 83 0.29 0 4.46
4/17/2017 12:00 PM 69 83 0.49 0.39 4.79
4/17/2017 1:00 PM 68 87 1.38 0 7.87
4/17/2017 2:00 PM 66 84 0.53 0 8
4/17/2017 3:00 PM 64 87 0.26 0.08 5.08
4/17/2017 4:00 PM 64 89 0.15 0.04 3.32
4/17/2017 5:00 PM 63 93 0.11 0.11 3.46
4/17/2017 6:00 PM 63 88 0.21 0.03 5.14
4/17/2017 7:00 PM 64 75 0.11 0 3.77
4/17/2017 8:00 PM 63 87 0.04 0 2.17
4/17/2017 9:00 PM 64 86 0 0 5.18
4/17/2017 10:00 PM 63 88 0 0 4.43
4/17/2017 11:00 PM 63 91 0 0 3.39
Data Summary 67 85 4.30 0.65 4.48